EW1433 Weather Reports


Display with metric or nautical units.
time (UTC)temp
F
wind
direction
speed
MPH
gust
MPH
rain 1hr
in
rain 24hr
in
rain mn
in
humidity
%
barometer
mb
20260507003503 0 347 0.0 0.0 0.00 0.00 0.00 1017.1
20260507003002 77 0 0.0 0.0 0.00 0.00 0.00 47 1017.0
20260507002503 77 0 0.0 0.0 0.00 0.00 0.00 47 1017.0
20260507002234 77 340 0.0 0.0 0.00 0.00 0.00 47 1017.1
20260507001502 77 321 0.0 0.0 0.00 0.00 0.00 49 1017.0
20260507001001 77 20 0.0 0.0 0.00 0.00 0.00 48 1017.1
20260507000502 77 39 0.0 0.0 0.00 0.00 0.00 48 1017.0
20260507000002 78 0 0.0 0.0 0.00 0.00 0.00 47 1017.0
20260506235502 78 35 0.0 0.0 0.00 0.00 0.00 48 1017.1
20260506235003 77 348 0.0 0.0 0.00 0.00 0.00 48 1017.0
20260506234502 76 0.0 0.0 0.00 0.00 0.00 46 1017.0
20260506234005 77 24 0.0 0.0 0.00 0.00 0.00 46 1017.1
20260506233456 78 24 0.0 1.0 0.00 0.00 0.00 47 1017.1
20260506232956 78 51 0.0 1.0 0.00 0.00 0.00 47 1017.1
20260506232455 78 292 0.0 0.0 0.00 0.00 0.00 47 1017.1
20260506232243 77 302 0.0 0.0 0.00 0.00 0.00 47 1017.1
20260506231454 78 28 0.0 0.0 0.00 0.00 0.00 47 1017.2
20260506230955 78 305 0.0 0.0 0.00 0.00 0.00 46 1017.2
20260506230456 78 255 0.0 0.0 0.00 0.00 0.00 46 1017.3
20260506225955 78 337 0.0 0.0 0.00 0.00 0.00 46 1017.3
20260506225455 79 337 0.0 0.0 0.00 0.00 0.00 46 1017.4
20260506224955 0 1 0.0 0.0 0.00 0.00 0.00 1017.3
20260506224747 79 310 0.0 0.0 0.00 0.00 0.00 46 1017.4
20260506223956 79 344 0.0 0.0 0.00 0.00 0.00 46 1017.4
20260506223454 78 49 0.0 1.0 0.00 0.00 0.00 44 1017.4
20260506222956 78 354 0.0 1.0 0.00 0.00 0.00 46 1017.4
20260506222457 77 331 0.0 0.0 0.00 0.00 0.00 45 1017.5
20260506221954 78 310 0.0 0.0 0.00 0.00 0.00 47 1017.5
20260506221736 76 353 0.0 0.0 0.00 0.00 0.00 46 1017.7
20260506220954 77 293 0.0 0.0 0.00 0.00 0.00 46 1017.7
20260506220455 75 293 0.0 0.0 0.00 0.00 0.00 46 1017.8
20260506215958 76 189 0.0 0.0 0.00 0.00 0.00 46 1017.8
20260506215454 78 296 0.0 0.0 0.00 0.00 0.00 46 1018.0
20260506214955 77 309 0.0 0.0 0.00 0.00 0.00 49 1018.0
20260506214753 76 341 0.0 0.0 0.00 0.00 0.00 49 1018.1
20260506213954 75 300 0.0 0.0 0.00 0.00 0.00 48 1018.2
20260506213455 76 310 0.0 0.0 0.00 0.00 0.00 49 1018.2
20260506212956 75 329 0.0 0.0 0.00 0.00 0.00 50 1018.3
20260506212457 75 275 0.0 0.0 0.00 0.00 0.00 50 1018.4
20260506211958 74 275 0.0 0.0 0.00 0.00 0.00 49 1018.4
20260506211458 74 324 0.0 1.0 0.00 0.00 0.00 50 1018.5
20260506210957 74 271 0.0 4.0 0.00 0.00 0.00 50 1018.6
20260506210457 74 200 1.0 4.0 0.00 0.00 0.00 48 1018.5
20260506205957 75 320 0.0 0.0 0.00 0.00 0.00 51 1018.6
20260506205800 74 71 0.0 0.0 0.00 0.00 0.00 51 1018.7
20260506204958 73 337 0.0 2.0 0.00 0.00 0.00 52 1018.7
20260506204749 73 264 0.0 2.0 0.00 0.00 0.00 50 1018.7
20260506204259 74 300 0.0 1.0 0.00 0.00 0.00 52 1018.7
20260506203457 74 353 0.0 0.0 0.00 0.00 0.00 51 1018.8
20260506202957 73 1 0.0 0.0 0.00 0.00 0.00 53 1018.8
20260506202456 72 353 0.0 0.0 0.00 0.00 0.00 50 1018.9
20260506201957 74 286 0.0 0.0 0.00 0.00 0.00 52 1019.0
20260506201457 73 313 0.0 0.0 0.00 0.00 0.00 52 1019.0
20260506200958 72 0.0 0.0 0.00 0.00 0.00 53 1019.1
20260506200458 72 30 0.0 0.0 0.00 0.00 0.00 52 1019.1
20260506195958 72 30 0.0 0.0 0.00 0.00 0.00 54 1019.1
20260506195458 71 288 0.0 0.0 0.00 0.00 0.00 55 1019.1
20260506194957 71 345 0.0 0.0 0.00 0.00 0.00 54 1019.2
20260506194458 71 345 0.0 0.0 0.00 0.00 0.00 55 1019.2
20260506193956 71 354 0.0 0.0 0.00 0.00 0.00 54 1019.3
20260506193457 71 347 0.0 0.0 0.00 0.00 0.00 57 1019.3
20260506192958 70 324 0.0 0.0 0.00 0.00 0.00 55 1019.3
20260506192757 0 323 0.0 0.0 0.00 0.00 0.00 1019.4
20260506191958 0 0 0.0 0.0 0.00 0.00 0.00 1019.5
20260506191457 0 0 0.0 0.0 0.00 0.00 0.00 1019.6
20260506190958 0 354 0.0 0.0 0.00 0.00 0.00 1019.5
20260506190457 0 330 0.0 0.0 0.00 0.00 0.00 1019.7
20260506185957 69 320 0.0 0.0 0.00 0.00 0.00 61 1019.6
20260506185458 69 306 0.0 0.0 0.00 0.00 0.00 61 1019.7
20260506184956 66 319 0.0 0.0 0.00 0.00 0.00 61 1019.6
20260506184458 66 299 0.0 0.0 0.00 0.00 0.00 61 1019.7
20260506183956 66 299 0.0 0.0 0.00 0.00 0.00 60 1019.8
20260506183457 66 295 0.0 0.0 0.00 0.00 0.00 60 1019.8
20260506182957 66 279 0.0 0.0 0.00 0.00 0.00 62 1019.8
20260506182458 66 0 0.0 0.0 0.00 0.00 0.00 60 1019.8
20260506182237 67 327 0.0 0.0 0.00 0.00 0.00 61 1019.9
20260506181457 67 316 0.0 0.0 0.00 0.00 0.00 63 1019.9
20260506180957 66 166 0.0 0.0 0.00 0.00 0.00 63 1019.9
20260506180456 65 166 0.0 0.0 0.00 0.00 0.00 63 1020.0
20260506175958 65 94 0.0 0.0 0.00 0.00 0.00 62 1020.1
20260506175456 0 289 0.0 0.0 0.00 0.00 0.00 1020.0
20260506174958 0 276 0.0 0.0 0.00 0.00 0.00 1019.9
20260506174456 0 317 0.0 0.0 0.00 0.00 0.00 1020.1
20260506173958 0 317 0.0 0.0 0.00 0.00 0.00 1020.0
20260506173456 62 45 0.0 0.0 0.00 0.00 0.00 67 1020.0
20260506172957 62 0.0 0.0 0.00 0.00 0.00 67 1020.0
20260506172443 62 323 0.0 0.0 0.00 0.00 0.00 71 1020.1
20260506171944 62 323 0.0 0.0 0.00 0.00 0.00 71 1020.1
20260506171433 62 331 0.0 0.0 0.00 0.00 0.00 71 1020.1
20260506170931 60 347 0.0 0.0 0.00 0.00 0.00 72 1020.2
20260506170433 60 292 0.0 0.0 0.00 0.00 0.00 73 1020.2
20260506165929 60 326 0.0 0.0 0.00 0.00 0.00 73 1020.1
20260506165429 60 314 0.0 0.0 0.00 0.00 0.00 73 1020.2
20260506164928 60 338 0.0 0.0 0.00 0.00 0.00 73 1020.2
20260506164705 60 285 0.0 0.0 0.00 0.00 0.00 74 1020.1
20260506163929 60 285 0.0 0.0 0.00 0.00 0.00 74 1020.1
20260506163815 60 37 0.0 0.0 0.00 0.00 0.00 76 1020.3
20260506163811 60 344 0.0 0.0 0.00 0.00 0.00 75 1020.2
20260506162429 59 37 0.0 0.0 0.00 0.00 0.00 75 1020.2
20260506161927 59 327 0.0 0.0 0.00 0.00 0.00 75 1020.2
20260506161425 59 0 0.0 0.0 0.00 0.00 0.00 75 1020.3
20260506160925 59 307 0.0 0.0 0.00 0.00 0.00 75 1020.2
20260506160715 59 274 0.0 0.0 0.00 0.00 0.00 75 1020.2
20260506160245 59 321 0.0 0.0 0.00 0.00 0.00 75 1020.2
20260506155426 59 313 0.0 0.0 0.00 0.00 0.00 76 1020.2
20260506154925 59 254 0.0 0.0 0.00 0.00 0.00 76 1020.2
20260506154426 58 302 0.0 0.0 0.00 0.00 0.00 76 1020.2
20260506153927 58 338 0.0 0.0 0.00 0.00 0.00 76 1020.2
20260506153426 59 319 0.0 0.0 0.00 0.00 0.00 77 1020.1
20260506153223 58 319 0.0 0.0 0.00 0.00 0.00 77 1020.1
20260506152429 58 345 0.0 0.0 0.00 0.00 0.00 77 1020.2
20260506151928 58 289 0.0 0.0 0.00 0.00 0.00 77 1020.1
20260506151426 58 309 0.0 0.0 0.00 0.00 0.00 77 1020.2
20260506150927 58 323 0.0 0.0 0.00 0.00 0.00 78 1020.1
20260506150426 57 345 0.0 0.0 0.00 0.00 0.00 79 1020.1
20260506145929 0 310 0.0 0.0 0.00 0.00 0.00 1020.1
20260506145515 57 303 0.0 0.0 0.00 0.00 0.00 79 1020.2
20260506145457 57 341 0.0 0.0 0.00 0.00 0.00 79 1020.2
20260506144425 57 303 0.0 0.0 0.00 0.00 0.00 79 1020.2
20260506143927 57 306 0.0 0.0 0.00 0.00 0.00 79 1020.2
20260506143429 57 306 0.0 0.0 0.00 0.00 0.00 79 1020.1
20260506142930 56 300 0.0 0.0 0.00 0.00 0.00 79 1020.1
20260506142430 0 300 0.0 0.0 0.00 0.00 0.00 1020.0
20260506141928 56 331 0.0 0.0 0.00 0.00 0.00 79 1020.1
20260506141428 56 331 0.0 0.0 0.00 0.00 0.00 79 1020.0
20260506140925 56 334 0.0 0.0 0.00 0.00 0.00 79 1020.1
20260506140427 56 334 0.0 0.0 0.00 0.00 0.00 79 1019.9
20260506135929 56 336 0.0 0.0 0.00 0.00 0.00 79 1019.9
20260506135428 56 312 0.0 0.0 0.00 0.00 0.00 79 1019.8
20260506135210 56 312 0.0 0.0 0.00 0.00 0.00 79 1019.7
20260506134429 56 312 0.0 0.0 0.00 0.00 0.00 79 1019.5
20260506133928 56 312 0.0 0.0 0.00 0.00 0.00 79 1019.5
20260506133429 57 312 0.0 0.0 0.00 0.00 0.00 78 1019.4
20260506132903 57 307 0.0 0.0 0.00 0.00 0.00 78 1019.5
20260506132405 57 307 0.0 0.0 0.00 0.00 0.00 78 1019.3
20260506131904 57 307 0.0 0.0 0.00 0.00 0.00 78 1019.3
20260506131403 57 307 0.0 0.0 0.00 0.00 0.00 78 1019.3
20260506130904 57 309 0.0 0.0 0.00 0.00 0.00 78 1019.3
20260506130404 57 309 0.0 0.0 0.00 0.00 0.00 78 1019.2
20260506125904 57 309 0.0 0.0 0.00 0.00 0.00 77 1019.2
20260506125405 57 309 0.0 0.0 0.00 0.00 0.00 77 1019.1
20260506124905 57 309 0.0 0.0 0.00 0.00 0.00 77 1019.1
20260506124406 57 309 0.0 0.0 0.00 0.00 0.00 77 1019.0
20260506123907 0 0.0 0.0 0.00 0.00 0.00 1019.1
20260506123406 57 309 0.0 0.0 0.00 0.00 0.00 77 1019.1
20260506122901 57 309 0.0 0.0 0.00 0.00 0.00 77 1019.1
20260506122359 57 309 0.0 0.0 0.00 0.00 0.00 77 1019.1
20260506121901 57 309 0.0 0.0 0.00 0.00 0.00 77 1019.1
20260506121400 57 309 0.0 0.0 0.00 0.00 0.00 77 1019.1
20260506120900 57 309 0.0 0.0 0.00 0.00 0.00 76 1019.0
20260506120401 57 309 0.0 0.0 0.00 0.00 0.00 76 1019.0
20260506115900 57 309 0.0 0.0 0.00 0.00 0.00 76 1018.9
20260506115359 57 309 0.0 0.0 0.00 0.00 0.00 76 1018.8
20260506114859 57 309 0.0 0.0 0.00 0.00 0.00 76 1018.8
20260506114359 57 309 0.0 0.0 0.00 0.00 0.00 76 1018.8
20260506113900 58 309 0.0 0.0 0.00 0.00 0.00 76 1018.8
20260506113401 58 309 0.0 0.0 0.00 0.00 0.00 76 1018.6
20260506113148 58 309 0.0 0.0 0.00 0.00 0.00 76 1018.7
20260506112400 58 309 0.0 0.0 0.00 0.00 0.00 76 1018.6
20260506112148 58 309 0.0 0.0 0.00 0.00 0.00 76 1018.6
20260506111401 58 309 0.0 0.0 0.00 0.00 0.00 76 1018.7
20260506110901 58 309 0.0 0.0 0.00 0.00 0.00 76 1018.6
20260506110400 58 309 0.0 0.0 0.00 0.00 0.00 76 1018.5
20260506105900 58 309 0.0 0.0 0.00 0.00 0.00 76 1018.6
20260506105400 58 309 0.0 0.0 0.00 0.00 0.00 75 1018.5
20260506104900 58 309 0.0 0.0 0.00 0.00 0.00 76 1018.5
20260506104359 58 309 0.0 0.0 0.00 0.00 0.00 76 1018.4
20260506103900 58 309 0.0 0.0 0.00 0.00 0.00 76 1018.4
20260506103401 58 309 0.0 0.0 0.00 0.00 0.00 76 1018.5
20260506102901 58 309 0.0 0.0 0.00 0.00 0.00 76 1018.5
20260506102401 58 309 0.0 0.0 0.00 0.00 0.00 76 1018.4
20260506101901 58 309 0.0 0.0 0.00 0.00 0.00 76 1018.6
20260506101400 58 309 0.0 0.0 0.00 0.00 0.00 76 1018.5
20260506100900 58 309 0.0 0.0 0.00 0.00 0.00 76 1018.6
20260506100702 58 309 0.0 0.0 0.00 0.00 0.00 76 1018.5
20260506095901 58 309 0.0 0.0 0.00 0.00 0.00 76 1018.5
20260506095401 58 309 0.0 0.0 0.00 0.00 0.00 76 1018.5
20260506094901 58 309 0.0 0.0 0.00 0.00 0.00 76 1018.4
20260506094400 58 309 0.0 0.0 0.00 0.00 0.00 76 1018.5
20260506093900 58 309 0.0 0.0 0.00 0.00 0.00 76 1018.5
20260506093401 58 0.0 0.0 0.00 0.00 0.00 76 1018.6
20260506092857 58 309 0.0 0.0 0.00 0.00 0.00 76 1018.6
20260506092346 58 309 0.0 0.0 0.00 0.00 0.00 76 1018.7
20260506091846 58 309 0.0 0.0 0.00 0.00 0.00 76 1018.7
20260506091345 58 309 0.0 0.0 0.00 0.00 0.00 76 1018.6
20260506090845 58 309 0.0 0.0 0.00 0.00 0.00 76 1018.6
20260506090346 58 309 0.0 0.0 0.00 0.00 0.00 76 1018.5
20260506085846 58 309 0.0 0.0 0.00 0.00 0.00 75 1018.5
20260506085344 58 309 0.0 0.0 0.00 0.00 0.00 75 1018.5
20260506084845 58 309 0.0 0.0 0.00 0.00 0.00 75 1018.5
20260506084346 58 309 0.0 0.0 0.00 0.00 0.00 75 1018.5
20260506084148 58 309 0.0 0.0 0.00 0.00 0.00 75 1018.5
20260506083345 58 309 0.0 0.0 0.00 0.00 0.00 75 1018.5
20260506082844 58 309 0.0 0.0 0.00 0.00 0.00 75 1018.5
20260506082345 58 309 0.0 0.0 0.00 0.00 0.00 75 1018.6
20260506081846 58 309 0.0 0.0 0.00 0.00 0.00 75 1018.6
20260506081346 58 309 0.0 0.0 0.00 0.00 0.00 75 1018.5
20260506080845 58 309 0.0 0.0 0.00 0.00 0.00 75 1018.5
20260506080644 58 309 0.0 0.0 0.00 0.00 0.00 75 1018.5
20260506072846 58 309 0.0 0.0 0.00 0.00 0.00 73 1018.2
20260506072652 58 7 0.0 0.0 0.00 0.00 0.00 73 1018.3
20260506071845 58 7 0.0 0.0 0.00 0.00 0.00 73 1018.2
20260506071638 58 7 0.0 0.0 0.00 0.00 0.00 73 1018.2
20260506070844 58 7 0.0 0.0 0.00 0.00 0.00 73 1018.1
20260506070345 58 7 0.0 0.0 0.00 0.00 0.00 72 1018.0
20260506062134 59 327 0.0 0.0 0.00 0.00 0.00 71 1017.7
20260506061625 59 327 0.0 0.0 0.00 0.00 0.00 71 1017.7
20260506061139 59 327 0.0 0.0 0.00 0.00 0.00 70 1017.6
20260506060345 59 327 0.0 0.0 0.00 0.00 0.00 70 1017.5
20260506051345 59 327 0.0 0.0 0.00 0.00 0.00 70 1017.4
20260506050846 59 327 0.0 0.0 0.00 0.00 0.00 70 1017.3
20260506050346 59 327 0.0 0.0 0.00 0.00 0.00 70 1017.3
20260506044845 59 327 0.0 0.0 0.00 0.00 0.00 70 1017.1
20260506044344 59 327 0.0 0.0 0.00 0.00 0.00 70 1017.1
20260506043845 59 327 0.0 0.0 0.00 0.00 0.00 70 1017.1
20260506043345 59 327 0.0 0.0 0.00 0.00 0.00 70 1017.1
20260506042936 59 327 0.0 0.0 0.00 0.00 0.00 70 1016.9
20260506042922 59 327 0.0 0.0 0.00 0.00 0.00 70 1017.1
20260506041845 59 327 0.0 0.0 0.00 0.00 0.00 70 1016.9
20260506041345 59 327 0.0 0.0 0.00 0.00 0.00 70 1016.9
20260506040845 59 327 0.0 0.0 0.00 0.00 0.00 70 1016.8
20260506040345 59 327 0.0 0.0 0.00 0.00 0.00 70 1016.7
20260506035845 59 327 0.0 0.0 0.00 0.00 0.00 70 1016.6
20260506035635 59 327 0.0 0.0 0.00 0.00 0.00 70 1016.7
20260506034839 59 327 0.0 0.0 0.00 0.00 0.00 70 1016.5
20260506034332 59 327 0.0 0.0 0.00 0.00 0.00 70 1016.4
20260506033832 59 327 0.0 0.0 0.00 0.00 0.00 71 1016.3
20260506033332 59 323 0.0 0.0 0.00 0.00 0.00 71 1016.2
20260506032813 59 323 0.0 0.0 0.00 0.00 0.00 70 1016.2
20260506032600 59 323 0.0 0.0 0.00 0.00 0.00 70 1016.1
20260506032039 59 323 0.0 0.0 0.00 0.00 0.00 70 1016.0
20260506031304 59 347 0.0 0.0 0.00 0.00 0.00 70 1016.0
20260506030804 59 347 0.0 0.0 0.00 0.00 0.00 70 1015.9
20260506030605 59 338 0.0 0.0 0.00 0.00 0.00 70 1015.9
20260506025805 59 338 0.0 0.0 0.00 0.00 0.00 71 1015.8
20260506025305 59 338 0.0 0.0 0.00 0.00 0.00 71 1015.8
20260506024803 59 306 0.0 0.0 0.00 0.00 0.00 70 1015.7
20260506024306 60 306 0.0 0.0 0.00 0.00 0.00 70 1015.7
20260506023803 60 303 0.0 0.0 0.00 0.00 0.00 69 1015.5
20260506023304 60 298 0.0 0.0 0.00 0.00 0.00 69 1015.6
20260506022804 60 298 0.0 0.0 0.00 0.00 0.00 69 1015.5
20260506022306 60 323 0.0 0.0 0.00 0.00 0.00 69 1015.4
20260506021804 60 310 0.0 0.0 0.00 0.00 0.00 69 1015.5
20260506021304 60 340 0.0 0.0 0.00 0.00 0.00 69 1015.5
20260506020805 60 340 0.0 0.0 0.00 0.00 0.00 69 1015.4
20260506020303 60 340 0.0 0.0 0.00 0.00 0.00 69 1015.4
20260506015803 60 298 0.0 0.0 0.00 0.00 0.00 69 1015.5
20260506015306 60 298 0.0 0.0 0.00 0.00 0.00 68 1015.6
20260506014803 60 298 0.0 0.0 0.00 0.00 0.00 68 1015.6
20260506014557 0 298 0.0 0.0 0.00 0.00 0.00 1015.6
20260506013804 0 298 0.0 0.0 0.00 0.00 0.00 1015.5
20260506013307 61 0.0 0.0 0.00 0.00 0.00 68 1015.6
20260506012802 61 0.0 0.0 0.00 0.00 0.00 68 1015.5
20260506012246 61 266 0.0 0.0 0.00 0.00 0.00 68 1015.5
20260506011746 61 266 0.0 0.0 0.00 0.00 0.00 68 1015.5
20260506011520 61 11 0.0 0.0 0.00 0.00 0.00 68 1015.5
20260506010744 61 309 0.0 0.0 0.00 0.00 0.00 69 1015.5
20260506010245 61 314 0.0 0.0 0.00 0.00 0.00 69 1015.4
20260506005745 61 314 0.0 0.0 0.00 0.00 0.00 68 1015.5
20260506005244 61 314 0.0 0.0 0.00 0.00 0.00 68 1015.4
20260506004747 61 314 0.0 0.0 0.00 0.00 0.00 68 1015.4
20260506004248 61 314 0.0 0.0 0.00 0.00 0.00 68 1015.5
20260506003748 61 314 0.0 0.0 0.00 0.00 0.00 68 1015.4